Location: Glenbow
(51.1592°N, 114.3828°W)
Time: 21:12:03
(UTC+00:00)

Envisat - Pass Details

Date: 07 December 2021
Orbit: 764 x 766 km, 98.2° (Epoch: 26 January)

Event Time Altitude Azimuth Distance (km) Brightness Sun altitude
Rises 11:59:35 0° 20° (NNE) 3,247 6.5 -31.4°
Reaches altitude 10° 12:02:06 10° 30° (NNE) 2,315 5.8 -31.0°
Maximum altitude 12:06:44 34° 95° (E) 1,242 4.5 -30.2°
Drops below altitude 10° 12:11:20 10° 160° (SSE) 2,298 5.7 -29.5°
Sets 12:13:50 0° 170° (S) 3,219 6.4 -29.1°
